Skip Page Navigation
NASA JPL Caltech
NASA Logo - Jet Propulsion Laboratory + View the NASA Portal
+ Center for Near-Earth Object Studies
JPL Home Earth Solar System Stars & Galaxies Technology
JPL Solar System Dynamics
BODIES ORBITS EPHEMERIDES TOOLS PHYSICAL DATA DISCOVERY FAQ SITE MAP
IMPORTANT: The SSD Announcement email list is now available. Major changes are coming in the near future, including possible hostname and/or URL changes. To be notified of such changes, subscribe to this email list.

Please visit this page for more details.


JPL Small-Body Database Browser
Search: [ help ]  
410527 (2008 FF1)
Classification: Inner Main-belt Asteroid          SPK-ID: 2410527
Ephemeris | Orbit Diagram | Orbital Elements | Mission Design | Physical Parameters | Discovery Circumstances ]

[ show orbit diagram ]
Orbital Elements at Epoch 2458600.5 (2019-Apr-27.0) TDB
Reference: JPL 15 (heliocentric ecliptic J2000)
 Element Value Uncertainty (1-sigma)   Units 
e .0658280425920874 4.0506e-08  
a 1.907928930396152 1.8243e-08 au
q 1.782333703503359 7.9039e-08 au
i 22.79714271536782 1.0345e-05 deg
node 172.2028588702486 1.1724e-05 deg
peri 114.1626097357184 8.9096e-05 deg
M 330.6415866075301 9.1679e-05 deg
tp 2458679.000386965973
(2019-Jul-14.50038697)
0.00024572 TDB
period 962.5908229427189
2.64
1.3806e-05
3.78e-08
d
yr
n .3739906837044743 5.3639e-09 deg/d
Q 2.033524157288946 1.9444e-08 au
  Orbit Determination Parameters
   # obs. used (total)      103  
   data-arc span      4089 days (11.20 yr)  
   first obs. used      2006-09-14  
   last obs. used      2017-11-24  
   planetary ephem.      DE431  
   SB-pert. ephem.      SB431-N16  
   condition code      0  
   norm. resid. RMS      .54515  
   source      ORB  
   producer      Otto Matic  
   solution date      2017-Dec-07 18:44:11  

Additional Information
 Earth MOID = .825089 au 
 Jupiter MOID = 3.08391 au 
 T_jup = 3.841 
[ show covariance matrix ]

Ephemeris | Orbit Diagram | Orbital Elements | Mission Design | Physical Parameters | Discovery Circumstances ]

Physical Parameter Table
Parameter Symbol Value Units Sigma Reference Notes
absolute magnitude H 18.2   n/a MPO434516  

410527 (2008 FF1)          Discovered 2008-Mar-25 by Spacewatch at Kitt Peak
Reference: Last Updated: 2014-10-09
Ephemeris | Orbit Diagram | Orbital Elements | Mission Design | Physical Parameters | Discovery Circumstances ]
ABOUT SSD CREDITS/AWARDS PRIVACY/COPYRIGHT GLOSSARY LINKS
FirstGov 2020-Jan-20 12:04 UT
(server date/time)  
NASA Home Page
Site Manager:   Ryan S. Park
Webmaster  Alan B. Chamberlin